GFSFLT2_925_temp_177.txt.gz
Temp
4 4 3 3 3 2 1 1 2 2 2 2 2 2 2 2 2 2 2 2 3 3 3 4 4 4 4
3 3 2 1 1 2 2 2 2 2 2 2 2 2 2 2 2 2 2 2 2 2 2 2 2 3 3
2 1 1 2 2 2 2 2 1 1 1 1 1 1 1 1 1 1 1 1 1 1 1 1 2 2 2
1 1 2 2 2 2 1 1 0 1 1 1 1 1 1 1 1 1 1 1 0 0 1 1 1 1 2
1 1 1 2 1 1 1 0 -0 -0 -0 0 0 0 0 0 0 1 0 0 0 0 0 0 0 1 1
1 1 1 1 1 -0 -1 -1 -1 -1 -0 -1 -1 -1 -1 -0 -0 -0 -0 0 0 -0 -0 -0 -0 0 1
0 0 -0 -0 -1 -2 -2 -2 -2 -2 -1 -1 -2 -1 -1 -1 -1 -1 -0 -0 -0 -0 -0 -0 -0 -0 0
-0 -1 -1 -2 -2 -2 -3 -3 -2 -2 -1 -2 -2 -2 -2 -2 -1 -1 -0 -0 -0 -0 -0 -0 -1 -1 -0
-1 -1 -1 -2 -2 -2 -3 -3 -3 -3 -2 -2 -2 -3 -2 -2 -1 -1 -1 -1 -0 -0 -0 -1 -1 -1 -1
-2 -2 -2 -3 -2 -3 -4 -4 -4 -4 -3 -3 -3 -3 -3 -2 -2 -2 -2 -1 -1 -1 -1 -1 -1 -1 -1
-3 -3 -3 -3 -3 -3 -4 -4 -5 -5 -4 -4 -4 -4 -3 -3 -3 -3 -2 -2 -2 -2 -2 -2 -1 -1 -1
-3 -3 -4 -4 -4 -4 -4 -4 -4 -4 -4 -4 -4 -4 -4 -3 -3 -3 -3 -3 -2 -2 -2 -2 -2 -2 -2
-4 -4 -4 -5 -5 -5 -5 -5 -5 -4 -4 -4 -4 -4 -4 -4 -4 -4 -3 -4 -3 -2 -2 -3 -3 -3 -3
-5 -5 -5 -5 -5 -6 -6 -6 -5 -5 -5 -5 -5 -4 -4 -4 -4 -4 -4 -4 -3 -2 -2 -3 -3 -3 -3
-6 -6 -6 -6 -6 -6 -6 -6 -6 -5 -5 -5 -4 -4 -4 -4 -4 -4 -4 -3 -3 -3 -3 -3 -3 -3 -3
-6 -6 -6 -6 -6 -6 -6 -6 -6 -6 -5 -5 -5 -4 -4 -4 -3 -3 -3 -3 -3 -3 -3 -3 -3 -3 -4
-7 -7 -6 -7 -6 -6 -6 -6 -6 -6 -5 -5 -5 -5 -5 -5 -4 -3 -4 -5 -5 -4 -4 -3 -4 -3 -3

GFSFLT2_925_temp_180.txt.gz
Temp
3 3 2 2 2 2 2 2 2 2 2 2 2 2 2 2 2 2 2 2 2 2 2 2 3 3 3
2 2 1 1 2 2 2 2 2 1 1 1 1 1 1 1 1 1 1 1 1 1 2 2 2 2 3
1 1 1 1 1 2 1 1 1 -0 0 0 0 0 1 1 1 1 1 1 1 1 1 1 1 1 2
1 1 0 0 1 0 -0 -1 -1 -1 -1 -1 -1 -0 -1 -0 -0 -0 -0 0 1 1 0 0 0 1 1
0 -0 -0 -0 -1 -1 -1 -2 -2 -2 -2 -2 -2 -2 -1 -1 -1 -1 -0 -0 0 0 -0 -0 0 0 1
0 -0 -1 -1 -1 -2 -2 -3 -3 -3 -3 -3 -2 -2 -2 -2 -1 -1 -1 -0 -0 0 -0 -0 -0 0 0
0 -0 -1 -1 -1 -3 -3 -3 -3 -3 -3 -3 -3 -3 -2 -2 -2 -2 -1 -0 -0 -0 -0 -0 -0 -0 -0
-1 -1 -1 -1 -2 -2 -2 -3 -4 -4 -4 -4 -4 -3 -3 -3 -2 -2 -1 -1 -1 -1 -0 -1 -0 -0 -0
-2 -2 -2 -2 -3 -3 -4 -4 -4 -4 -4 -4 -4 -4 -4 -4 -3 -2 -2 -2 -2 -1 -1 -1 -1 -1 -1
-3 -3 -3 -3 -3 -3 -4 -4 -5 -4 -4 -5 -5 -4 -4 -3 -3 -3 -3 -3 -3 -3 -2 -2 -2 -2 -2
-3 -4 -4 -4 -4 -5 -5 -5 -5 -5 -5 -5 -5 -5 -4 -4 -4 -4 -3 -3 -3 -3 -3 -2 -2 -2 -3
-4 -4 -5 -5 -5 -5 -5 -5 -5 -5 -5 -5 -5 -5 -5 -5 -4 -4 -4 -4 -4 -3 -2 -2 -3 -3 -3
-5 -5 -5 -5 -5 -5 -6 -6 -5 -5 -5 -5 -5 -5 -5 -5 -5 -4 -4 -4 -3 -3 -3 -3 -3 -3 -4
-6 -6 -6 -6 -6 -6 -6 -6 -6 -6 -6 -5 -5 -5 -5 -5 -5 -5 -5 -5 -4 -4 -3 -3 -3 -3 -3
-6 -7 -7 -6 -7 -6 -6 -6 -7 -6 -6 -6 -5 -5 -5 -5 -5 -5 -5 -5 -4 -4 -4 -5 -4 -3 -3
-6 -7 -7 -7 -7 -7 -7 -7 -7 -7 -7 -7 -6 -6 -6 -5 -4 -4 -4 -5 -5 -5 -5 -5 -4 -4 -4
-7 -7 -7 -7 -7 -7 -7 -7 -7 -7 -7 -6 -7 -6 -7 -7 -6 -5 -6 -6 -6 -5 -5 -5 -5 -5 -5

GFSFLT2_925_temp_186.txt.gz
Temp
2 1 1 1 1 1 1 1 0 -1 -1 -0 -1 -0 -0 0 0 1 1 1 1 1 1 2 2 2 2
1 1 0 0 0 -0 -0 -0 -1 -1 -1 -1 -1 -1 -1 -1 -1 -0 -0 -0 -0 0 1 1 1 1 1
-0 0 0 -0 -1 -1 -1 -1 -2 -2 -2 -2 -2 -2 -2 -2 -1 -1 -2 -1 -0 -0 1 1 1 1 1
-1 -0 -1 -1 -1 -2 -2 -2 -3 -2 -3 -3 -3 -3 -3 -3 -3 -3 -2 -2 -1 -0 -0 -0 -0 0 1
-1 -1 -2 -2 -2 -2 -3 -3 -3 -3 -3 -4 -3 -3 -3 -3 -3 -3 -2 -2 -1 -1 -1 -0 -0 0 1
-2 -2 -2 -3 -3 -3 -3 -4 -4 -3 -4 -5 -4 -4 -3 -3 -4 -3 -3 -2 -1 -1 -1 -1 -1 -0 -0
-2 -3 -3 -3 -3 -3 -4 -4 -4 -4 -5 -5 -5 -4 -4 -4 -4 -4 -3 -2 -2 -2 -2 -2 -1 -1 -1
-3 -3 -3 -3 -4 -4 -4 -5 -5 -5 -5 -5 -5 -5 -5 -4 -3 -4 -3 -3 -3 -3 -2 -2 -2 -2 -1
-3 -3 -4 -4 -4 -5 -5 -6 -6 -6 -5 -6 -5 -6 -5 -3 -3 -4 -4 -4 -4 -3 -3 -3 -3 -2 -2
-3 -4 -4 -4 -5 -5 -6 -6 -7 -6 -5 -6 -6 -6 -6 -4 -4 -4 -5 -4 -5 -5 -4 -4 -3 -3 -3
-4 -4 -5 -5 -6 -6 -6 -6 -7 -7 -6 -6 -6 -7 -6 -6 -6 -6 -5 -5 -5 -5 -4 -4 -4 -4 -4
-5 -5 -6 -6 -6 -6 -6 -6 -6 -6 -6 -6 -7 -7 -7 -7 -7 -6 -6 -6 -5 -5 -5 -5 -4 -5 -5
-6 -6 -6 -6 -6 -7 -7 -7 -7 -7 -6 -6 -7 -7 -7 -8 -7 -7 -6 -6 -6 -5 -5 -5 -6 -6 -5
-6 -6 -6 -6 -6 -7 -7 -7 -7 -7 -7 -6 -7 -7 -7 -8 -8 -8 -7 -7 -7 -6 -6 -6 -6 -6 -6
-6 -6 -7 -7 -7 -7 -8 -8 -8 -8 -8 -7 -6 -7 -7 -7 -8 -8 -8 -7 -7 -7 -7 -7 -7 -6 -6
-6 -7 -7 -7 -7 -7 -8 -8 -9 -8 -9 -8 -8 -8 -8 -7 -7 -6 -7 -7 -7 -8 -8 -8 -8 -7 -7
-7 -7 -7 -8 -8 -8 -8 -9 -9 -9 -9 -8 -8 -8 -9 -8 -7 -6 -7 -7 -8 -8 -8 -8 -8 -8 -7

GFSFLT2_925_temp_189.txt.gz
Temp
2 1 1 1 1 1 0 0 -0 -0 -1 -1 -1 -1 -1 -1 -0 -0 0 0 0 1 1 1 1 2 2
1 1 0 0 -0 -0 -1 -1 -1 -1 -2 -2 -2 -2 -2 -2 -1 -1 -1 -1 -1 -0 0 1 1 1 1
-0 -0 -0 -1 -1 -1 -1 -1 -2 -1 -1 -2 -3 -2 -3 -2 -2 -2 -2 -2 -2 -1 -0 -0 0 1 1
-1 -1 -1 -2 -2 -2 -2 -2 -3 -1 -2 -3 -3 -3 -4 -4 -3 -3 -3 -2 -1 -1 -1 -0 -0 0 1
-2 -2 -2 -3 -3 -3 -3 -4 -3 -2 -3 -4 -4 -4 -4 -3 -3 -4 -3 -2 -2 -1 -1 -1 -1 -1 -0
-2 -3 -3 -3 -3 -4 -4 -5 -4 -4 -4 -5 -4 -4 -4 -3 -4 -4 -3 -3 -2 -2 -2 -1 -1 -1 -1
-2 -3 -3 -3 -3 -4 -4 -5 -5 -5 -5 -5 -4 -4 -4 -4 -4 -4 -3 -2 -3 -3 -2 -2 -2 -2 -2
-3 -3 -3 -4 -4 -4 -5 -5 -6 -5 -5 -6 -5 -5 -5 -3 -4 -4 -4 -3 -3 -3 -3 -3 -3 -2 -2
-3 -3 -4 -4 -5 -5 -6 -7 -6 -6 -6 -6 -5 -6 -6 -4 -4 -4 -4 -4 -5 -4 -4 -4 -3 -3 -3
-3 -4 -4 -5 -5 -6 -6 -7 -7 -7 -6 -6 -6 -6 -7 -5 -5 -6 -5 -6 -6 -5 -5 -4 -4 -4 -4
-4 -4 -5 -5 -6 -6 -6 -7 -7 -7 -7 -7 -6 -7 -7 -7 -6 -6 -6 -7 -7 -6 -6 -6 -5 -5 -5
-5 -5 -5 -6 -6 -6 -6 -7 -7 -7 -7 -7 -7 -8 -8 -8 -7 -7 -7 -7 -7 -7 -6 -5 -5 -6 -6
-6 -6 -6 -6 -6 -6 -7 -7 -7 -7 -7 -7 -7 -7 -7 -8 -8 -8 -7 -8 -7 -6 -7 -6 -7 -7 -6
-6 -6 -6 -7 -7 -7 -7 -7 -8 -8 -7 -7 -8 -8 -8 -8 -8 -8 -8 -8 -7 -7 -7 -7 -7 -6 -7
-6 -6 -7 -7 -8 -8 -8 -8 -8 -9 -9 -8 -7 -8 -8 -8 -9 -8 -8 -8 -7 -7 -8 -8 -8 -7 -7
-6 -7 -7 -8 -8 -8 -8 -9 -9 -10 -9 -8 -8 -9 -9 -8 -7 -7 -7 -7 -7 -8 -8 -9 -8 -7 -7
-7 -7 -8 -8 -8 -9 -9 -9 -10 -10 -9 -8 -8 -10 -10 -10 -8 -7 -7 -7 -8 -8 -8 -8 -8 -8 -7

GFSFLT2_925_temp_192.txt.gz
Temp
1 1 1 2 1 0 0 0 0 0 -1 -1 -1 -1 -1 -1 -1 -1 -1 -0 0 0 1 1 1 2 2
1 1 1 0 -0 -0 -0 -0 -0 0 -2 -2 -2 -2 -2 -2 -2 -2 -2 -2 -1 -1 -0 0 1 1 1
-0 0 -0 -1 -1 -0 -1 -1 -1 -0 -1 -1 -2 -3 -3 -3 -3 -2 -3 -3 -2 -1 -1 -0 0 1 1
-1 -1 -2 -2 -2 -2 -2 -2 -2 -1 -2 -3 -2 -2 -3 -3 -3 -3 -4 -3 -2 -1 -1 -1 -0 -1 0
-2 -2 -2 -3 -3 -4 -4 -3 -2 -3 -2 -3 -3 -2 -3 -3 -3 -4 -4 -3 -2 -2 -2 -2 -1 -1 -1
-2 -3 -3 -3 -3 -4 -4 -5 -5 -4 -5 -3 -3 -3 -3 -3 -4 -4 -4 -3 -2 -2 -2 -2 -2 -2 -2
-2 -3 -3 -3 -4 -4 -5 -5 -6 -5 -6 -6 -4 -4 -4 -3 -4 -4 -4 -3 -3 -3 -3 -3 -2 -3 -2
-3 -3 -4 -4 -4 -5 -5 -6 -5 -5 -6 -6 -5 -5 -6 -3 -4 -4 -4 -4 -4 -4 -4 -3 -3 -3 -3
-3 -3 -3 -4 -5 -5 -6 -7 -7 -6 -7 -7 -6 -6 -6 -4 -4 -4 -4 -5 -5 -5 -5 -4 -4 -4 -4
-3 -4 -4 -4 -5 -6 -6 -8 -8 -7 -6 -7 -7 -7 -7 -6 -5 -5 -6 -5 -6 -6 -6 -5 -5 -5 -5
-4 -4 -5 -5 -6 -6 -6 -7 -8 -8 -8 -7 -7 -7 -7 -7 -7 -7 -7 -6 -6 -6 -7 -6 -6 -5 -6
-5 -5 -6 -6 -6 -6 -7 -7 -7 -7 -7 -7 -8 -8 -8 -8 -8 -7 -7 -7 -7 -7 -6 -6 -6 -6 -7
-5 -6 -6 -6 -6 -6 -6 -7 -7 -7 -7 -8 -8 -8 -9 -8 -8 -8 -8 -7 -7 -6 -7 -6 -7 -7 -7
-6 -6 -6 -7 -8 -8 -8 -8 -8 -8 -6 -7 -8 -8 -9 -9 -9 -9 -9 -9 -7 -7 -7 -7 -7 -7 -7
-6 -6 -7 -8 -8 -8 -8 -8 -9 -9 -8 -7 -7 -8 -8 -9 -10 -9 -9 -8 -8 -8 -8 -8 -8 -7 -7
-7 -7 -7 -8 -8 -8 -8 -9 -9 -9 -9 -8 -8 -9 -9 -8 -8 -8 -8 -8 -8 -8 -8 -8 -8 -7 -7
-7 -8 -8 -8 -8 -9 -9 -9 -10 -10 -9 -9 -9 -10 -11 -11 -8 -8 -8 -8 -8 -8 -8 -8 -9 -8 -7

GFSFLT2_925_temp_195.txt.gz
Temp
2 2 1 1 1 1 1 1 1 1 -0 -1 -1 -1 -1 -1 -1 -1 -1 -0 -1 -0 0 1 1 2 2
0 1 1 1 1 0 0 0 -0 0 -0 -2 -2 -2 -2 -2 -2 -2 -2 -2 -2 -1 -1 0 1 1 1
0 0 0 -1 -0 0 0 0 -0 0 -0 -1 -1 -2 -3 -3 -3 -3 -3 -3 -3 -2 -1 -1 -0 -0 0
-0 -1 -2 -1 -2 -2 -2 -2 -2 -1 -1 -1 -1 -1 -2 -2 -2 -3 -3 -3 -2 -2 -1 -1 -1 -1 -1
-2 -2 -2 -2 -3 -3 -3 -3 -3 -2 -3 -3 -3 -4 -4 -3 -3 -4 -4 -3 -2 -2 -2 -2 -2 -1 -1
-2 -2 -3 -3 -4 -4 -4 -4 -3 -5 -5 -3 -4 -4 -4 -4 -4 -5 -4 -3 -2 -2 -2 -3 -2 -2 -2
-2 -3 -3 -3 -4 -4 -4 -5 -4 -5 -6 -5 -4 -4 -4 -4 -4 -5 -3 -3 -3 -4 -3 -3 -3 -2 -3
-2 -3 -3 -4 -4 -5 -5 -6 -5 -5 -6 -5 -5 -5 -5 -4 -5 -5 -4 -4 -4 -4 -4 -4 -4 -3 -3
-3 -3 -3 -4 -5 -5 -5 -6 -5 -5 -5 -6 -5 -6 -5 -5 -5 -5 -5 -5 -5 -5 -5 -5 -5 -4 -4
-3 -3 -4 -4 -5 -5 -6 -7 -6 -6 -6 -7 -6 -6 -6 -6 -6 -6 -6 -6 -6 -6 -6 -6 -5 -5 -5
-3 -4 -4 -5 -5 -6 -6 -7 -7 -7 -7 -7 -7 -7 -7 -7 -6 -6 -7 -6 -6 -6 -6 -6 -6 -6 -5
-4 -5 -6 -6 -6 -7 -6 -7 -7 -7 -7 -8 -8 -8 -8 -8 -7 -7 -7 -7 -7 -7 -7 -6 -6 -6 -6
-5 -6 -6 -6 -6 -6 -7 -8 -7 -7 -7 -7 -8 -8 -9 -9 -8 -8 -7 -7 -7 -7 -7 -7 -7 -7 -7
-5 -6 -6 -7 -7 -8 -8 -8 -8 -8 -6 -7 -8 -9 -9 -9 -9 -9 -8 -8 -7 -7 -7 -7 -7 -7 -7
-6 -7 -7 -7 -8 -8 -8 -9 -9 -9 -9 -8 -7 -8 -8 -9 -10 -9 -8 -8 -7 -8 -8 -8 -7 -7 -7
-6 -7 -7 -8 -8 -8 -9 -9 -10 -9 -9 -9 -9 -10 -9 -8 -8 -9 -8 -8 -8 -8 -8 -8 -8 -7 -7
-6 -7 -8 -8 -9 -9 -10 -10 -10 -10 -10 -9 -10 -10 -9 -8 -8 -8 -8 -8 -8 -8 -8 -7 -8 -8 -7